OBJECT AF, 69009

Orbit data source: Space-Track

You're viewing an Uncataloged Satellite

Recently launched and/or uncataloged satellites may have evolving metadata. Metadata may include but not limited to: Owner, Maufacturer, Bus, Motor, and Mission.

OBJECT AF, 69009 is a satellite in SSO that was launched on Sun, 03 May 2026 UTC via an FALCON 9 launch vehicle from the Air Force Western Test Range (AFWTR). Unknown objects in Earth's orbit typically refer to objects detected orbiting the Earth but have not yet been identified or cataloged. These objects could be anything from previously untracked satellites, spent rocket stages, debris from satellite collisions, or even natural meteoroids temporarily captured by Earth's gravity.

Loading next visibility...
Identifier
69009, 2026-100AF
Orbit
SSO
Country
Flag of TBDTBD
Related business
None
Manufacturer
Unknown
Mission
Operational spacecraft
Bus & Motor
Unknown
Mass
Unknown
Launch date (UTC)
2026-05-03 (2 months ago)
Launch vehicle
FALCON 9
Launch site
Air Force Western Test Range (AFWTR)
Object type
Unknown
Shape & HBR
Unknown shape, 1.1 m
Radar Cross Section
Medium (>0.1 m² and <1 m²)

Expand to show TLE details & history
Last TLE update: 20 hours ago

TLE from 20 hours ago
0 OBJECT AF
1 69009U 26100AF  26174.95251523  .00009464  00000-0  43808-3 0  9994
2 69009  97.4036  72.6139 0003560 343.7828  16.3292 15.20326989  7838
Epoch: 2026-06-23T22:51Z
TLE epoch observation values (Epoch: 2026-06-23T22:51:37.315Z)
Latitude
-0.00013°
Longitude
177.59174°
Altitude
505.592 km
Speed
7.613 km/s
True Right ascension
04h 50m 27s
True Declination
0° 00' 00"
Sunlit
Object was in daylight at epoch
Visualization orbit readout
Latitude
Unknown
Longitude
Unknown
Altitude
Unknown
Speed
Unknown
Apparent Right ascension
Unknown
Apparent Declination
Unknown
Sunlit
N/A
Visualization observer readout
Local Sidereal Time
06:01:14
Azimuth
Unknown
Elevation
Unknown
Doppler factor
Unknown
Orbital elements
Apogee altitude
504.268 km
Perigee altitude
499.37 km
Semi-major axis
6,879.956 km
Eccentricity
0.00036
Inclination
97.4036°
RAAN
72.6139°
Arg. of periapsis
343.7828°
True anomaly
16.34067°
Mean anomaly
16.3292°
Eccentric anomaly
16.33494°
Mean motion
3.80334 °/min
Orbital period
94.65 mins
BSTAR
0.00043808
Loading maneuver chart data...
Computing Atmospheric mass density...
Loading historical data...
Loading historical data...
Loading historical data...
Loading historical data...
Loading historical data...
Loading historical data...
Loading historical data...

Documentation

Showing up to 5 results
|